When you browse on this site, cookies collect data to enhance your experience and personalize the content and advertising you see.
Visit our Privacy Policy to learn more. By continuing to use the site, you agree to this use of cookies and data.
  • In Latvia
  • List of Countries
  • For 7 days
  • Water Temperature
  • Satellite Maps
  • Weather Map
  • Weather Widgets
  • user-avatar
    Login

    Hourly Weather Kaprun

    Today, 20 May, Monday

    Time Temperature Precipitation Wind Pressure Humidity
    00:00 +2°C° 0.1 mm 1 mps 587 mmHg 95%
    01:00 +1°C° 0 mm 1 mps 587 mmHg 94%
    02:00 +1°C° 0.1 mm 1 mps 586 mmHg 94%
    03:00 +1°C° 0.1 mm 1 mps 586 mmHg 94%
    04:00 +1°C° 0.1 mm 1 mps 586 mmHg 93%
    05:00 +2°C° 0.2 mm 1 mps 586 mmHg 93%
    06:00 +3°C° 0.2 mm 1 mps 587 mmHg 92%
    07:00 +2°C° 0 mm 0 mps 587 mmHg 95%
    08:00 +4°C° 2.3 mm 1 mps 587 mmHg 95%
    09:00 +4°C° 2.3 mm 1 mps 587 mmHg 95%
    10:00 +4°C° 2.3 mm 1 mps 587 mmHg 95%
    11:00 +4°C° 2.7 mm 1 mps 587 mmHg 96%
    12:00 +4°C° 2.7 mm 1 mps 587 mmHg 96%
    13:00 +4°C° 2.7 mm 1 mps 588 mmHg 97%
    14:00 +4°C° 2 mm 1 mps 588 mmHg 97%
    15:00 +4°C° 2 mm 1 mps 588 mmHg 97%
    16:00 +4°C° 2 mm 1 mps 588 mmHg 97%
    17:00 +4°C° 1.1 mm 1 mps 588 mmHg 97%
    18:00 +3°C° 1.1 mm 1 mps 588 mmHg 97%
    19:00 +2°C° 1.1 mm 2 mps 588 mmHg 97%
    20:00 +2°C° 1.7 mm 2 mps 588 mmHg 97%
    21:00 +3°C° 1.7 mm 1 mps 588 mmHg 97%
    22:00 +2°C° 1.7 mm 1 mps 588 mmHg 97%
    23:00 +2°C° 2.6 mm 1 mps 588 mmHg 97%

    Tomorrow, 21 May, Tuesday

    Time Temperature Precipitation Wind Pressure Humidity
    00:00 +2°C° 2.6 mm 1 mps 588 mmHg 97%
    01:00 +2°C° 2.6 mm 1 mps 588 mmHg 96%
    02:00 +2°C° 2.4 mm 1 mps 588 mmHg 96%
    03:00 +2°C° 2.4 mm 1 mps 588 mmHg 96%
    04:00 +2°C° 2.4 mm 1 mps 588 mmHg 96%
    05:00 +2°C° 3.2 mm 1 mps 589 mmHg 96%
    06:00 +2°C° 3.2 mm 1 mps 589 mmHg 96%
    07:00 +2°C° 3.2 mm 1 mps 589 mmHg 96%
    08:00 +2°C° 2.4 mm 1 mps 590 mmHg 96%
    09:00 +3°C° 2.4 mm 1 mps 590 mmHg 96%
    10:00 +3°C° 2.4 mm 1 mps 590 mmHg 96%
    11:00 +3°C° 1 mm 1 mps 591 mmHg 95%
    12:00 +4°C° 1 mm 1 mps 591 mmHg 95%
    13:00 +4°C° 1 mm 1 mps 592 mmHg 94%
    14:00 +4°C° 0.5 mm 1 mps 592 mmHg 94%
    15:00 +3°C° 0.5 mm 2 mps 592 mmHg 94%
    16:00 +3°C° 0.5 mm 2 mps 592 mmHg 95%
    17:00 +3°C° 0.5 mm 2 mps 592 mmHg 96%
    18:00 +3°C° 0.5 mm 2 mps 593 mmHg 97%
    19:00 +3°C° 0.5 mm 1 mps 593 mmHg 98%
    20:00 +3°C° 0.7 mm 1 mps 593 mmHg 97%
    21:00 +3°C° 0.7 mm 1 mps 593 mmHg 97%
    22:00 +2°C° 0.7 mm 1 mps 594 mmHg 97%
    23:00 +2°C° 0.4 mm 1 mps 594 mmHg 96%

    Day after tomorrow, 22 May, Wednesday

    Time Temperature Precipitation Wind Pressure Humidity
    00:00 +2°C° 0.4 mm 1 mps 594 mmHg 96%
    01:00 +2°C° 0.4 mm 1 mps 594 mmHg 95%
    02:00 +2°C° 0.2 mm 1 mps 594 mmHg 95%
    03:00 +2°C° 0.2 mm 1 mps 594 mmHg 95%
    04:00 +2°C° 0.2 mm 1 mps 594 mmHg 95%
    05:00 +2°C° 0.3 mm 1 mps 594 mmHg 96%
    06:00 +3°C° 0.3 mm 1 mps 595 mmHg 96%
    07:00 +3°C° 0.3 mm 1 mps 595 mmHg 96%
    08:00 +3°C° 0.6 mm 1 mps 595 mmHg 96%
    09:00 +3°C° 0.6 mm 1 mps 596 mmHg 95%
    10:00 +4°C° 0.6 mm 1 mps 596 mmHg 95%
    11:00 +3°C° 0.2 mm 2 mps 596 mmHg 94%
    12:00 +4°C° 0.2 mm 2 mps 596 mmHg 93%
    13:00 +4°C° 0.2 mm 2 mps 597 mmHg 92%
    14:00 +4°C° 0 mm 2 mps 597 mmHg 89%
    15:00 +5°C° 0 mm 2 mps 597 mmHg 85%
    16:00 +5°C° 0 mm 2 mps 597 mmHg 82%
    17:00 +5°C° 0 mm 2 mps 597 mmHg 86%
    18:00 +4°C° 0 mm 2 mps 597 mmHg 89%
    19:00 +3°C° 0 mm 2 mps 597 mmHg 93%
    20:00 +3°C° 0 mm 1 mps 597 mmHg 94%
    21:00 +2°C° 0 mm 1 mps 597 mmHg 96%
    22:00 +2°C° 0 mm 1 mps 597 mmHg 97%
    23:00 +1°C° 0 mm 1 mps 597 mmHg 97%

    23 May, Thursday

    Time Temperature Precipitation Wind Pressure Humidity
    00:00 +1°C° 0 mm 1 mps 597 mmHg 96%
    01:00 +1°C° 0 mm 1 mps 596 mmHg 96%
    02:00 0°C° 0 mm 1 mps 596 mmHg 96%
    03:00 0°C° 0 mm 1 mps 596 mmHg 96%
    04:00 0°C° 0 mm 1 mps 596 mmHg 96%
    05:00 +1°C° 0 mm 1 mps 597 mmHg 93%
    06:00 +3°C° 0 mm 1 mps 597 mmHg 91%
    07:00 +4°C° 0 mm 1 mps 598 mmHg 89%
    08:00 +5°C° 0 mm 1 mps 598 mmHg 85%
    09:00 +7°C° 0 mm 1 mps 599 mmHg 80%
    10:00 +8°C° 0 mm 1 mps 599 mmHg 75%
    11:00 +9°C° 0 mm 1 mps 599 mmHg 72%
    12:00 +8°C° 0 mm 2 mps 599 mmHg 69%
    13:00 +9°C° 0 mm 2 mps 599 mmHg 65%
    14:00 +9°C° 0 mm 2 mps 599 mmHg 66%
    15:00 +9°C° 0 mm 2 mps 599 mmHg 66%
    16:00 +9°C° 0 mm 2 mps 598 mmHg 66%
    17:00 +7°C° 0 mm 2 mps 598 mmHg 72%
    18:00 +6°C° 0 mm 2 mps 597 mmHg 78%
    19:00 +6°C° 0 mm 1 mps 597 mmHg 84%
    20:00 +4°C° 0 mm 1 mps 596 mmHg 87%
    21:00 +3°C° 0 mm 1 mps 596 mmHg 90%
    22:00 +1°C° 0 mm 1 mps 595 mmHg 93%
    23:00 +1°C° 0 mm 1 mps 595 mmHg 91%

    24 May, Friday

    Time Temperature Precipitation Wind Pressure Humidity
    00:00 +1°C° 0 mm 1 mps 595 mmHg 89%
    01:00 +1°C° 0 mm 1 mps 595 mmHg 87%
    02:00 +1°C° 0 mm 1 mps 595 mmHg 85%
    03:00 +1°C° 0 mm 1 mps 595 mmHg 82%
    04:00 +1°C° 0 mm 1 mps 594 mmHg 79%
    05:00 +2°C° 0 mm 1 mps 595 mmHg 76%
    06:00 +4°C° 0 mm 1 mps 596 mmHg 73%
    07:00 +5°C° 0 mm 0 mps 596 mmHg 70%
    08:00 +8°C° 0 mm 1 mps 597 mmHg 66%
    09:00 +9°C° 0 mm 1 mps 597 mmHg 62%
    10:00 +10°C° 0 mm 1 mps 597 mmHg 59%
    11:00 +11°C° 0 mm 1 mps 597 mmHg 58%
    12:00 +12°C° 0 mm 1 mps 597 mmHg 57%
    13:00 +12°C° 0 mm 1 mps 597 mmHg 56%
    14:00 +12°C° 0 mm 1 mps 596 mmHg 58%
    15:00 +11°C° 0 mm 1 mps 595 mmHg 60%
    16:00 +11°C° 0 mm 1 mps 595 mmHg 62%
    17:00 +10°C° 0.2 mm 1 mps 594 mmHg 71%
    18:00 +8°C° 0.2 mm 1 mps 593 mmHg 81%
    19:00 +6°C° 0.2 mm 1 mps 592 mmHg 91%
    20:00 +6°C° 0.3 mm 1 mps 592 mmHg 93%
    21:00 +5°C° 0.3 mm 1 mps 592 mmHg 95%
    22:00 +5°C° 0.3 mm 1 mps 592 mmHg 98%
    23:00 +5°C° 2.5 mm 1 mps 592 mmHg 98%

    25 May, Saturday

    Time Temperature Precipitation Wind Pressure Humidity
    00:00 +4°C° 2.5 mm 1 mps 591 mmHg 98%
    01:00 +4°C° 2.5 mm 1 mps 591 mmHg 98%
    02:00 +4°C° 2.8 mm 1 mps 591 mmHg 98%
    03:00 +2°C° 2.8 mm 2 mps 591 mmHg 98%
    04:00 +2°C° 2.8 mm 2 mps 591 mmHg 98%
    05:00 +2°C° 0.9 mm 2 mps 591 mmHg 97%
    06:00 +3°C° 0.9 mm 1 mps 591 mmHg 96%
    07:00 +3°C° 0.9 mm 1 mps 592 mmHg 94%
    08:00 +3°C° 0.3 mm 2 mps 592 mmHg 92%
    09:00 +3°C° 0.3 mm 2 mps 593 mmHg 89%
    10:00 +4°C° 0.3 mm 2 mps 593 mmHg 87%
    11:00 +4°C° 0.4 mm 2 mps 593 mmHg 87%
    12:00 +4°C° 0.4 mm 2 mps 593 mmHg 87%
    13:00 +4°C° 0.4 mm 2 mps 593 mmHg 86%
    14:00 +4°C° 0.3 mm 3 mps 593 mmHg 84%
    15:00 +4°C° 0.3 mm 3 mps 593 mmHg 82%
    16:00 +4°C° 0.3 mm 3 mps 593 mmHg 79%
    17:00 +4°C° 0.1 mm 2 mps 593 mmHg 82%
    18:00 +4°C° 0.1 mm 2 mps 593 mmHg 85%
    19:00 +3°C° 0.1 mm 2 mps 593 mmHg 88%
    20:00 +3°C° 0 mm 1 mps 593 mmHg 90%
    21:00 +2°C° 0 mm 1 mps 593 mmHg 93%
    22:00 +1°C° 0 mm 1 mps 593 mmHg 95%
    23:00 +1°C° 0.1 mm 1 mps 593 mmHg 95%
    Show more